Flag for Iran Weather past 2 weeks in Bandar-Abbas, Iran

Now
59 °F

Fog.


Feels Like: 58 °F
Forecast: 57 / 77 °F
Wind: 7 mph from Northwest

Location: Bandarabbass

Current Time: Dec 19, 2014 at 2:48:45 AM

Latest Report: Dec 19, 2014 at 2:30 AM


Visibility: 3 mi

Pressure: 30.12 "Hg

Humidity: 88%

Dew point: 55 °F

Location of Bandar-AbbasLocation

Historic Weather in Bandar-Abbas — Graph

°F

Bandar-Abbas temperature yesterday

Maximum temperature yesterday: 79 °F (at 12:00 PM)
Minimum temperature yesterday: 57 °F (at 5:30 AM)
Average temperature yesterday: 68 °F

Past Weeks' High & Low Weather Summary

 TemperatureHumidityPressure
High88 °F (Dec 7, 2:00 PM)94% (Dec 17, 6:30 AM)30.18 "Hg (Dec 17, 6:30 AM)
Low48 °F (Dec 11, 6:30 AM)11% (Dec 14, 12:30 AM)29.95 "Hg (Dec 11, 2:30 PM)
Average69 °F44%30.07 "Hg
* Reported Dec 4 1:30 AM — Dec 19 1:30 AM, Bandar-Abbas, Weather by CustomWeather, © 2014

Note: Actual official high and low records may vary slightly from our data, if they occured in-between our weather recording intervals... More about our weather records

Advertising

Bandar-Abbas weather history for previous 24 hours

 ConditionsComfort  
Time TempWeatherWind HumidityBarometerVisibility
1:30 AM
Dec 19
59 °FFog.7 mph82%30.12 "Hg3 mi
1:00 AM59 °FClear.5 mph88%30.12 "Hg4 mi
12:30 AM61 °FClear.7 mph83%30.12 "Hg4 mi
12:00 AM59 °FClear.9 mph82%30.12 "Hg4 mi
11:30 PM
Dec 18
61 °FClear.7 mph77%30.12 "Hg4 mi
11:00 PM61 °FClear.7 mph77%30.12 "Hg4 mi
10:30 PM61 °FClear.7 mph83%30.12 "Hg4 mi
10:00 PM61 °FClear.7 mph83%30.12 "Hg4 mi
9:30 PM63 °FClear.5 mph83%30.12 "Hg4 mi
9:00 PM63 °FClear.5 mph83%30.12 "Hg4 mi
8:30 PM64 °FClear.5 mph83%30.09 "Hg4 mi
8:00 PM64 °FClear.No wind83%30.09 "Hg4 mi
7:30 PM68 °FClear.5 mph83%30.09 "Hg5 mi
7:00 PM70 °FClear.7 mph78%30.09 "Hg5 mi
6:30 PM70 °FClear.7 mph78%30.07 "Hg5 mi
6:00 PM70 °FClear.5 mph78%30.07 "Hg5 mi
5:30 PM72 °FClear.5 mph73%30.04 "Hg5 mi
5:00 PM73 °FSunny.67 mph69%30.04 "Hg5 mi
4:30 PM75 °FSunny.9 mph61%30.04 "Hg5 mi
4:00 PM75 °FSunny.9 mph61%30.04 "Hg5 mi
3:30 PM77 °FSunny.12 mph57%30.01 "Hg5 mi
3:00 PM77 °FPassing clouds.22 mph57%30.04 "Hg5 mi
2:30 PM79 °FPassing clouds.14 mph51%30.04 "Hg5 mi
2:00 PM79 °FPassing clouds.12 mph51%30.04 "Hg5 mi
1:30 PM79 °FPassing clouds.12 mph54%30.04 "Hg5 mi
1:00 PM79 °FPassing clouds.12 mph54%30.07 "Hg5 mi
12:30 PM79 °FPassing clouds.5 mph51%30.07 "Hg5 mi
12:00 PM79 °FPassing clouds.5 mph51%30.07 "Hg5 mi
11:30 AM77 °FPassing clouds.5 mph54%30.09 "Hg5 mi
11:00 AM75 °FPassing clouds.5 mph57%30.09 "Hg5 mi
10:30 AM73 °FSunny.9 mph61%30.12 "Hg5 mi
9:55 AM73 °FSunny.9 mph61%30.12 "Hg5 mi
9:30 AM72 °FSunny.7 mph65%30.12 "Hg5 mi
9:00 AM70 °FSunny.7 mph69%30.12 "Hg5 mi
8:30 AM66 °FSunny.7 mph73%30.12 "Hg4 mi
8:00 AM64 °FSunny.9 mph78%30.09 "Hg3 mi
7:00 AM59 °FFog.7 mph88%30.07 "Hg3 mi
6:00 AM59 °FPassing clouds.7 mph88%30.07 "Hg4 mi
5:30 AM57 °FClear.7 mph88%30.04 "Hg4 mi
4:30 AM59 °FClear.7 mph82%30.04 "Hg4 mi
3:30 AM61 °FClear.7 mph83%30.04 "Hg4 mi
2:30 AM61 °FClear.7 mph83%30.07 "Hg4 mi
Weather by CustomWeather, © 2014

See weather overviewHow to use our weather pages